Flag for Canada Weather past 2 weeks in Drummondville, Quebec, Canada

Now
66 °F

Mild.


Feels Like: 66 °F
Forecast: 61 / 71 °F
Wind: 12 mph from South

Location: Nicolet

Current Time: Sep 21, 2014 at 9:03:59 AM

Latest Report: Sep 21, 2014 at 8:00 AM


Visibility: N/A

Pressure: 29.67 "Hg

Humidity: 73%

Dew point: 58 °F

Location of DrummondvilleLocation

Historic Weather in Drummondville — Graph

°F

Drummondville temperature yesterday

Maximum temperature yesterday: 65 °F (at 3:00 PM)
Minimum temperature yesterday: 36 °F (at 3:00 AM)
Average temperature yesterday: 52 °F

Past Weeks' High & Low Weather Summary

 TemperatureHumidityPressure
High74 °F (Sep 11, 3:00 PM)100% (Sep 13, 2:00 AM)30.43 "Hg (Sep 13, 2:00 AM)
Low32 °F (Sep 19, 5:00 AM)37% (Sep 9, 4:00 PM)29.48 "Hg (Sep 11, 1:00 PM)
Average55 °F79%30.07 "Hg
* Reported Sep 6 7:00 AM — Sep 21 7:00 AM, Drummondville, Weather by CustomWeather, © 2014

Note: Actual official high and low records may vary slightly from our data, if they occured in-between our weather recording intervals... More about our weather records

Advertising

Drummondville weather history for previous 24 hours

 ConditionsComfort  
Time TempWeatherWind HumidityBarometerVisibility
7:00 AM
Sep 21
65 °FMild.12 mph75%29.67 "HgN/A
6:00 AM65 °FMild.10 mph76%29.67 "HgN/A
5:00 AM65 °FMild.10 mph77%29.68 "HgN/A
4:00 AM65 °FMild.9 mph78%29.70 "HgN/A
3:00 AM65 °FMild.12 mph76%29.73 "HgN/A
2:00 AM65 °FMild.13 mph77%29.77 "HgN/A
1:00 AM65 °FMild.12 mph78%29.79 "HgN/A
12:00 AM66 °FMild.14 mph76%29.80 "HgN/A
11:00 PM
Sep 20
64 °FMild.12 mph82%29.80 "HgN/A
7:00 PM64 °FMild.12 mph80%29.82 "HgN/A
6:00 PM65 °FMild.13 mph77%29.83 "HgN/A
5:00 PM65 °FMild.13 mph73%29.86 "HgN/A
4:00 PM65 °FMild.15 mph72%29.88 "HgN/A
3:00 PM65 °FMild.12 mph69%29.90 "HgN/A
2:00 PM64 °FMild.14 mph70%29.92 "HgN/A
1:00 PM62 °FCool.13 mph72%29.94 "HgN/A
9:00 AM54 °FCool.9 mph73%30.02 "HgN/A
Weather by CustomWeather, © 2014

See weather overviewHow to use our weather pages